Location: Huesca
(42.1318°N, 0.4078°W)
Time: 13:33:38
(UTC+02:00)

A-11 Canister half - All Passes

Search period start: 19 July 2024 00:00
Search period end: 29 July 2024 00:00
Orbit: 1515 x 1684 km, 47.2° (Epoch: 18 July)

Date Brightness Start Highest point End Pass type
(mag) Time Alt. Az. Time Alt. Az. Time Alt. Az.
19 Jul - 10:43:18 10° SSW 10:51:45 34° SE 11:00:25 10° ENE daylight
19 Jul - 12:45:59 10° WSW 12:55:56 85° SSE 13:06:10 10° ENE daylight
19 Jul - 14:51:33 10° W 15:01:36 67° N 15:11:46 10° ENE daylight
19 Jul - 16:57:18 10° WNW 17:07:33 81° NNE 17:17:43 10° ESE daylight
19 Jul - 19:02:41 10° WNW 19:12:18 49° SW 19:21:45 10° SSE daylight
19 Jul - 21:11:37 10° W 21:15:25 13° WSW 21:19:12 10° SW daylight
20 Jul - 10:20:37 10° S 10:28:50 32° SE 10:37:16 10° ENE daylight
20 Jul - 12:23:00 10° WSW 12:32:55 82° SSE 12:43:06 10° ENE daylight
20 Jul - 14:28:29 10° W 14:38:31 67° N 14:48:41 10° ENE daylight
20 Jul - 16:34:15 10° WNW 16:44:30 79° NNE 16:54:40 10° ESE daylight
20 Jul - 18:39:38 10° WNW 18:49:20 52° SW 18:58:54 10° SSE daylight
20 Jul - 20:47:54 10° W 20:52:33 14° WSW 20:57:10 10° SSW daylight
21 Jul - 09:57:57 10° S 10:05:55 30° SE 10:14:06 10° ENE daylight
21 Jul - 12:00:02 10° SW 12:09:54 79° SSE 12:20:03 10° ENE daylight
21 Jul - 14:05:25 10° W 14:15:26 68° N 14:25:37 10° ENE daylight
21 Jul - 16:11:14 10° WNW 16:21:26 77° NNE 16:31:37 10° ESE daylight
21 Jul - 18:16:34 10° WNW 18:26:22 55° SW 18:36:03 10° SE daylight
21 Jul - 20:24:20 10° W 20:29:40 16° WSW 20:34:58 10° SSW daylight
22 Jul - 09:35:17 10° S 09:43:01 28° SE 09:50:57 10° ENE daylight
22 Jul - 11:37:05 10° SW 11:46:53 76° SSE 11:57:01 10° ENE daylight
22 Jul - 13:42:21 10° W 13:52:21 68° N 14:02:32 10° ENE daylight
22 Jul - 15:48:11 10° WNW 15:58:22 76° NNE 16:08:33 10° ESE daylight
22 Jul - 17:53:31 10° WNW 18:03:23 58° SW 18:13:10 10° SE daylight
22 Jul - 20:00:54 10° W 20:06:47 17° WSW 20:12:39 10° SSW daylight
23 Jul - 09:12:41 10° S 09:20:07 26° SE 09:27:44 10° ENE daylight
23 Jul - 11:14:09 10° SW 11:23:53 73° SSE 11:33:58 10° ENE daylight
23 Jul - 13:19:18 10° W 13:29:16 69° N 13:39:28 10° ENE daylight
23 Jul - 15:25:08 10° WNW 15:35:18 74° NNE 15:45:30 10° E daylight
23 Jul - 17:30:28 10° WNW 17:40:24 61° SW 17:50:15 10° SE daylight
23 Jul - 19:37:30 10° W 19:43:54 19° SW 19:50:14 10° SSW daylight
24 Jul - 08:50:06 10° S 08:57:14 24° SE 09:04:31 10° E daylight
24 Jul - 10:51:14 10° SW 11:00:54 70° SE 11:10:55 10° ENE daylight
24 Jul - 12:56:16 10° W 13:06:12 70° N 13:16:23 10° ENE daylight
24 Jul - 15:02:06 10° WNW 15:12:13 73° NNE 15:22:26 10° E daylight
24 Jul - 17:07:25 10° WNW 17:17:24 64° SW 17:27:20 10° SE daylight
24 Jul - 19:14:11 10° W 19:21:00 21° SW 19:27:46 10° SSW daylight
25 Jul - 08:27:34 10° S 08:34:20 22° SE 08:41:16 10° E daylight
25 Jul - 10:28:19 10° SW 10:37:55 67° SE 10:47:52 10° ENE daylight
25 Jul - 12:33:13 10° W 12:43:08 71° NNW 12:53:19 10° ENE daylight
25 Jul - 14:39:03 10° WNW 14:49:09 71° NNE 14:59:21 10° E daylight
25 Jul - 16:44:23 10° WNW 16:54:25 67° SW 17:04:24 10° SE daylight
25 Jul - 18:50:54 10° W 18:58:06 22° SW 19:05:15 10° S daylight
26 Jul - 08:05:04 10° SSE 08:11:27 20° SE 08:17:59 10° E daylight
26 Jul - 10:05:25 10° SW 10:14:56 64° SE 10:24:48 10° ENE daylight
26 Jul - 12:10:10 10° W 12:20:04 72° NNW 12:30:15 10° ENE daylight
26 Jul - 14:16:01 10° WNW 14:26:05 70° NNE 14:36:17 10° E daylight
26 Jul - 16:21:22 10° WNW 16:31:25 70° SW 16:41:27 10° SE daylight
26 Jul - 18:27:40 10° WNW 18:35:11 24° SW 18:42:41 10° S daylight
27 Jul - 07:42:39 10° SSE 07:48:35 18° SE 07:54:38 10° E daylight
27 Jul - 09:42:31 10° SW 09:51:58 61° SE 10:01:45 10° ENE daylight
27 Jul - 11:47:08 10° W 11:57:00 74° NNW 12:07:11 10° ENE daylight
27 Jul - 13:52:58 10° WNW 14:03:01 69° N 14:13:11 10° E daylight
27 Jul - 15:58:20 10° WNW 16:08:25 73° SSW 16:18:30 10° SE daylight
27 Jul - 18:04:28 10° WNW 18:12:17 26° SW 18:20:04 10° S daylight
28 Jul - 07:20:17 10° SSE 07:25:43 17° ESE 07:31:14 10° E daylight
28 Jul - 09:19:39 10° SW 09:29:00 58° SE 09:38:41 10° ENE daylight
28 Jul - 11:24:06 10° WSW 11:33:57 75° NNW 11:44:07 10° ENE daylight
28 Jul - 13:29:56 10° WNW 13:39:56 68° N 13:50:06 10° E daylight
28 Jul - 15:35:18 10° WNW 15:45:24 76° SSW 15:55:32 10° SE daylight
28 Jul - 17:41:17 10° WNW 17:49:22 28° SW 17:57:25 10° S daylight
